Kenosha, WI

9:54 AM CST on December 13, 2017 (GMT -0600)
Kenosha Regional

Weather History for KENW - January, 2014

Change the Weather History Date:

Saturday, January 18, 2014

  Actual Average Record
Temperature  
Mean Temperature 15 °F -  
Max Temperature 21 °F 28 °F 52 °F (1973)
Min Temperature 9 °F 13 °F -14 °F (1967)
Degree Days  
Heating Degree Days 50    
Moisture  
Dew Point 12 °F    
Average Humidity 82    
Maximum Humidity 92    
Minimum Humidity 71    
Precipitation  
Precipitation 0.04 in - - ()
Sea Level Pressure  
Sea Level Pressure 29.85 in    
Wind  
Wind Speed 7 mph (WSW)    
Max Wind Speed 10 mph    
Max Gust Speed -    
Visibility 5 miles    
Events Fog , Snow    
Averages and records for this station are not official NWS values.
T = Trace of Precipitation, MM = Missing Value Source: NWS Daily Summary

Daily Weather History Graph

Daily Weather History Graph

Search for Another Location

Airport or City:

Trip Planner

Search our weather history database for the weather conditions in past years. The results will help you decide how hot, cold, wet, or windy it might be!

Date:

Astronomy

Jan. 18, 2014 Rise Set
Actual Time 7:17 AM CST 4:47 PM CST
Civil Twilight 6:46 AM CST 5:18 PM CST
Nautical Twilight 6:11 AM CST 5:52 PM CST
Astronomical Twilight 5:38 AM CST 6:26 PM CST
Moon 7:33 PM CST (1/18) 8:12 AM CST (1/18)
Length of Visible Light 10h 31m
Length of Day
9h 30m
Waning Gibbous, 94% of the Moon is Illuminated
Jan 18
Waning Gibbous
Jan 23
Last Quarter
Jan 30
New
Feb 6
First Quarter
Feb 14
Full

Hourly Weather History & Observations

Time (CST) Temp. Windchill Dew Point Humidity Pressure Visibility Wind Dir Wind Speed Gust Speed Precip Events Conditions
12:53 AM 17.1 °F 5.8 °F 10.9 °F 77% 29.92 in 10.0 mi West 9.2 mph - N/A   Overcast
1:53 AM 15.1 °F 4.2 °F 9.0 °F 77% 29.91 in 10.0 mi SW 8.1 mph - N/A   Overcast
2:53 AM 14.0 °F 1.2 °F 8.1 °F 77% 29.92 in 10.0 mi WSW 10.4 mph - N/A   Overcast
3:53 AM 10.9 °F -1.8 °F 5.0 °F 77% 29.91 in 10.0 mi West 9.2 mph - N/A   Partly Cloudy
4:53 AM 10.0 °F -3.7 °F 3.9 °F 76% 29.91 in 10.0 mi WSW 10.4 mph - N/A   Clear
5:53 AM 10.0 °F 3.6 °F 3.0 °F 73% 29.88 in 10.0 mi SSW 3.5 mph - N/A   Clear
6:53 AM 9.0 °F -2.2 °F 3.0 °F 77% 29.88 in 10.0 mi SSW 6.9 mph - N/A   Partly Cloudy
7:53 AM 9.0 °F 0.6 °F 3.0 °F 77% 29.87 in 10.0 mi South 4.6 mph - N/A   Clear
8:53 AM 12.0 °F 0.5 °F 6.1 °F 77% 29.86 in 10.0 mi South 8.1 mph - N/A   Overcast
9:53 AM 14.0 °F 2.0 °F 7.0 °F 74% 29.86 in 10.0 mi South 9.2 mph - N/A   Overcast
10:53 AM 16.0 °F 6.3 °F 8.1 °F 71% 29.85 in 4.0 mi South 6.9 mph - 0.00 in Snow Light Snow
11:53 AM 18.0 °F 12.7 °F 10.0 °F 71% 29.83 in 5.0 mi SE 3.5 mph - 0.00 in Snow Light Snow
12:08 PM 18.0 °F 9.8 °F 10.0 °F 71% 29.78 in 2.0 mi East 5.8 mph - 0.00 in Snow Light Snow
12:53 PM 18.0 °F 9.8 °F 12.0 °F 78% 29.80 in 4.0 mi ESE 5.8 mph - 0.00 in Snow Light Snow
1:35 PM 19.9 °F 11.1 °F 12.9 °F 74% 29.75 in 1.5 mi SSE 6.9 mph - 0.00 in Snow Light Snow
1:53 PM 19.9 °F 12.1 °F 14.0 °F 78% 29.79 in 1.2 mi SSE 5.8 mph - 0.00 in Snow Light Snow
2:53 PM 21.0 °F 16.2 °F 16.0 °F 81% 29.81 in 1.0 mi ENE 3.5 mph - 0.00 in Snow Light Snow
3:53 PM 21.9 °F 17.2 °F 18.0 °F 85% 29.84 in 0.8 mi ESE 3.5 mph - 0.01 in Snow Light Snow
4:53 PM 21.9 °F - 19.0 °F 89% 29.87 in 0.5 mi Calm Calm - 0.02 in Fog , Snow Snow
5:00 PM 21.9 °F - 19.0 °F 89% 29.83 in 0.8 mi Calm Calm - 0.00 in Snow Light Snow
5:12 PM 21.9 °F - 19.0 °F 89% 29.83 in 1.5 mi Calm Calm - 0.00 in Snow Light Snow
5:25 PM 21.9 °F - 18.0 °F 85% 29.84 in 1.8 mi Calm Calm - 0.01 in Snow Light Snow
5:38 PM 21.0 °F 16.2 °F 18.0 °F 88% 29.84 in 2.0 mi NNE 3.5 mph - 0.01 in Snow Light Snow
5:51 PM 21.2 °F 14.9 °F 17.6 °F 86% 29.84 in 2.5 mi North 4.6 mph - 0.01 in Snow Light Snow
5:53 PM 21.0 °F 14.6 °F 17.1 °F 85% 29.88 in 3.0 mi North 4.6 mph - 0.01 in Snow Light Snow
6:53 PM 19.0 °F 11.1 °F 15.1 °F 85% 29.87 in 5.0 mi NNW 5.8 mph - 0.00 in   Scattered Clouds
7:09 PM 18.0 °F 11.1 °F 15.1 °F 88% 29.84 in 5.0 mi NNW 4.6 mph - N/A   Mostly Cloudy
7:53 PM 19.0 °F 12.3 °F 15.1 °F 85% 29.87 in 5.0 mi NW 4.6 mph - N/A   Overcast
8:07 PM 19.0 °F 11.1 °F 15.1 °F 85% 29.83 in 5.0 mi NW 5.8 mph - N/A   Overcast
8:38 PM 18.0 °F 7.7 °F 15.1 °F 88% 29.83 in 6.0 mi WNW 8.1 mph - N/A   Overcast
8:53 PM 18.0 °F 7.7 °F 15.1 °F 88% 29.88 in 6.0 mi WNW 8.1 mph - N/A   Overcast
9:23 PM 18.0 °F 7.7 °F 15.1 °F 88% 29.86 in 7.0 mi NW 8.1 mph - N/A   Overcast
9:53 PM 17.1 °F 7.6 °F 12.9 °F 84% 29.91 in 7.0 mi WNW 6.9 mph - N/A   Overcast
10:23 PM 14.0 °F 6.5 °F 10.9 °F 88% 29.84 in 6.0 mi West 4.6 mph - N/A   Mostly Cloudy
10:35 PM 12.0 °F 4.1 °F 10.0 °F 92% 29.83 in 6.0 mi West 4.6 mph - N/A   Scattered Clouds
10:53 PM 10.9 °F 1.4 °F 8.1 °F 88% 29.88 in 5.0 mi WSW 5.8 mph - N/A   Clear
11:53 PM 10.0 °F -1.9 °F 6.1 °F 84% 29.86 in 5.0 mi West 8.1 mph - N/A   Clear